TimeEST,TemperatureF,Dew PointF,Humidity,Sea Level PressureIn,VisibilityMPH,Wind Direction,Wind SpeedMPH,Gust SpeedMPH,PrecipitationIn,Events,Conditions,WindDirDegrees,DateUTC
12:54 AM,52.0,48.9,89,29.92,10.0,SE,4.6,-,N/A,,Overcast,130,2013-01-13 05:54:00
1:54 AM,50.0,48.0,93,29.93,10.0,ESE,5.8,-,0.00,Rain,Light Rain,120,2013-01-13 06:54:00
2:54 AM,52.0,48.9,89,29.88,10.0,East,6.9,-,0.00,Rain,Light Rain,100,2013-01-13 07:54:00
3:54 AM,52.0,50.0,93,29.85,3.0,NNW,6.9,-,0.07,Rain,Heavy Rain,340,2013-01-13 08:54:00
4:01 AM,51.8,50.0,94,29.84,2.0,NNW,6.9,-,0.06,Rain,Heavy Rain,340,2013-01-13 09:01:00
4:24 AM,51.8,51.8,100,29.81,4.0,East,9.2,-,0.17,Rain,Light Rain,80,2013-01-13 09:24:00
4:54 AM,53.1,51.1,93,29.78,10.0,ESE,11.5,-,0.24,Rain,Light Rain,120,2013-01-13 09:54:00
5:54 AM,55.0,50.0,83,29.75,10.0,SE,11.5,-,0.00,,Overcast,140,2013-01-13 10:54:00
6:54 AM,55.4,51.8,88,29.76,10.0,South,11.5,-,N/A,,Overcast,190,2013-01-13 11:54:00
7:54 AM,62.1,53.1,72,29.76,10.0,SSW,15.0,24.2,N/A,Rain,Light Rain,200,2013-01-13 12:54:00
8:54 AM,64.0,54.0,70,29.76,10.0,SSW,19.6,27.6,0.00,,Overcast,200,2013-01-13 13:54:00
9:54 AM,64.0,55.0,73,29.76,10.0,SSW,21.9,31.1,0.00,Rain,Light Rain,210,2013-01-13 14:54:00
10:54 AM,64.9,55.0,70,29.75,10.0,SSW,25.3,34.5,0.00,Rain,Light Rain,210,2013-01-13 15:54:00
11:54 AM,64.9,55.0,70,29.77,10.0,WSW,21.9,32.2,0.00,,Mostly Cloudy,240,2013-01-13 16:54:00
12:54 PM,55.9,52.0,87,29.80,10.0,SW,23.0,32.2,N/A,,Mostly Cloudy,230,2013-01-13 17:54:00
1:08 PM,51.8,48.2,88,29.80,10.0,SW,20.7,32.2,N/A,,Mostly Cloudy,230,2013-01-13 18:08:00
1:43 PM,51.8,48.2,88,29.81,10.0,SW,17.3,24.2,N/A,,Mostly Cloudy,230,2013-01-13 18:43:00
1:54 PM,51.1,48.0,89,29.81,10.0,SW,16.1,20.7,N/A,,Mostly Cloudy,230,2013-01-13 18:54:00
2:40 PM,48.2,46.4,93,29.83,10.0,SW,13.8,-,N/A,,Mostly Cloudy,220,2013-01-13 19:40:00
2:54 PM,48.0,46.0,93,29.85,10.0,SW,11.5,-,N/A,,Mostly Cloudy,230,2013-01-13 19:54:00
3:19 PM,48.2,46.4,93,29.84,10.0,SW,10.4,-,N/A,,Mostly Cloudy,230,2013-01-13 20:19:00
3:39 PM,48.2,46.4,93,29.86,10.0,WSW,10.4,-,N/A,,Mostly Cloudy,240,2013-01-13 20:39:00
3:54 PM,48.9,46.0,90,29.87,10.0,SW,8.1,-,N/A,,Mostly Cloudy,220,2013-01-13 20:54:00
4:29 PM,46.4,44.6,93,29.87,10.0,SW,12.7,-,N/A,,Overcast,230,2013-01-13 21:29:00
4:43 PM,46.4,44.6,93,29.87,10.0,SW,9.2,-,N/A,,Overcast,220,2013-01-13 21:43:00
4:54 PM,48.0,45.0,89,29.88,10.0,SW,13.8,-,N/A,,Overcast,220,2013-01-13 21:54:00
5:38 PM,48.2,46.4,93,29.87,10.0,SW,9.2,-,N/A,,Overcast,230,2013-01-13 22:38:00
5:47 PM,48.2,46.4,93,29.87,10.0,SW,9.2,-,N/A,,Overcast,220,2013-01-13 22:47:00
5:54 PM,50.0,46.9,89,29.87,10.0,SW,9.2,-,N/A,,Overcast,220,2013-01-13 22:54:00
6:54 PM,50.0,46.9,89,29.88,10.0,SW,9.2,-,N/A,,Overcast,220,2013-01-13 23:54:00
7:54 PM,48.0,46.0,93,29.86,7.0,SW,9.2,-,0.00,,Overcast,220,2013-01-14 00:54:00
8:22 PM,46.4,46.4,100,29.85,5.0,WSW,9.2,-,0.00,,Overcast,240,2013-01-14 01:22:00
8:54 PM,46.9,46.0,97,29.85,3.0,SW,6.9,-,0.01,Rain,Light Rain,220,2013-01-14 01:54:00
9:19 PM,46.4,46.4,100,29.83,2.0,WSW,5.8,-,0.00,Rain,Light Rain,240,2013-01-14 02:19:00
9:30 PM,46.4,46.4,100,29.83,2.0,WSW,6.9,-,0.02,Rain,Rain,240,2013-01-14 02:30:00
9:43 PM,46.4,46.4,100,29.82,3.0,SW,5.8,-,0.02,Rain,Light Rain,230,2013-01-14 02:43:00
9:54 PM,46.9,46.0,97,29.83,3.0,SW,11.5,-,0.03,Rain,Light Rain,230,2013-01-14 02:54:00
10:14 PM,46.4,44.6,93,29.82,2.0,SW,5.8,-,0.01,Rain,Light Rain,220,2013-01-14 03:14:00
10:54 PM,46.0,45.0,96,29.80,2.0,South,6.9,-,0.03,,Overcast,190,2013-01-14 03:54:00
11:08 PM,46.4,44.6,93,29.77,1.5,SSE,6.9,-,N/A,,Overcast,160,2013-01-14 04:08:00
11:25 PM,46.4,44.6,93,29.77,2.5,SSW,5.8,-,0.00,,Overcast,200,2013-01-14 04:25:00
11:54 PM,46.0,45.0,96,29.78,3.0,West,10.4,-,0.00,,Overcast,270,2013-01-14 04:54:00